カタログに戻る

STARLINK-32624

運用中通信VLEO
NORAD 61926·PAYLOAD·🇺🇸 United States

打ち上げ Nov 11, 2024 から Cape Canaveral Space Force Station

Loading…

次のパス (今後24時間)

TLE

最新Source: CelesTrak SupGP

元期: Sep 14, 2026, 20:49 UTC

1 61926C 24207Q   26257.86784722 -.00017480  00000+0 -63321-3 0  2571
2 61926  43.0033 292.8766 0001392 281.0654 310.1677 15.27582613    16

AllMySatでSTARLINK-32624をリアルタイム追跡

Download on the App Store